Regional Weather Roundup
Issued by NWS Spokane, WA

Home | Current Version | Previous Version | Text Only | Print | Product List | Glossary On
Versions: 1 2 3 4 5 6 7 8 9 10 11 12 13 14 15 16 17 18 19 20 21 22 23 24 25 26 27 28 29 30 31 32 33 34 35 36 37 38 39 40 41 42 43 44 45 46 47 48 49 50
438
NZUS01 KOTX 301710
RWROTX
EASTERN WASHINGTON/NORTHERN IDAHO ROUNDUP
NATIONAL WEATHER SERVICE, SPOKANE WA
1000 AM PDT SAT JUL 30 2016

Note: "fair" indicated few or no clouds below 12,000 feet with no
significant weather and/or obstructions to visibility.

...NORTHEAST WASHINGTON AND NORTHERN IDAHO PANHANDLE...

CITY           SKY/WX    TMP DP  RH WIND       PRES   REMARKS
SPOKANE INTL   SUNNY     79  45  29 SW13      29.78F
SPOKANE DOWNTO SUNNY     82  47  29 SW9       29.78F
COEUR D ALENE  SUNNY     81  52  36 S13G21    29.77F
DEER PARK      SUNNY     76  49  38 S7        29.79S
SANDPOINT      SUNNY     77  54  44 S3        29.78S
BONNERS FERRY    N/A     73  57  56 CALM      29.77

...SOUTHEAST WASHINGTON AND SOUTHERN IDAHO PANHANDLE...

CITY           SKY/WX    TMP DP  RH WIND       PRES   REMARKS
WALLA WALLA    SUNNY     84  50  30 W12       29.80F
PULLMAN/MOSCOW SUNNY     81  48  31 W14G25    29.86S
LEWISTON       SUNNY     84  50  30 NE3       29.78F
LOWELL           N/A     74  55  51 CALM      29.79F

...COLUMBIA BASIN...

CITY           SKY/WX    TMP DP  RH WIND       PRES   REMARKS
EPHRATA        SUNNY     87  44  22 S9        29.73F
MOSES LAKE     SUNNY     87  43  21 SW6       29.75S
TRI CITIES     SUNNY     86  54  33 S9        29.75F
HERMISTON      SUNNY     83  50  31 SW16      29.79S
PENDLETON      SUNNY     84  45  25 W15       29.82S

...EAST SLOPES CASCADES...

CITY           SKY/WX    TMP DP  RH WIND       PRES   REMARKS
THE DALLES     SUNNY     76  47  35 NW20G35   29.82S
YAKIMA         SUNNY     86  50  28 CALM      29.77F
ELLENSBURG     SUNNY     78  54  43 NW24G31   29.81S
STAMPEDE PASS  CLOUDY    51  50  96 VRB7      29.99R
WENATCHEE      SUNNY     83  51  33 NW16      29.75F
OMAK           SUNNY     84  46  26 N6        29.73S

...SOUTHERN BRITISH COLUMBIA...

CITY           SKY/WX    TMP DP  RH WIND       PRES   REMARKS
PENTICTON      MOSUNNY   84  54  34 N10       29.72F
CASTLEGAR      SUNNY     73  59  60 N2        29.72F
CRANBROOK      MOSUNNY   73  54  49 NE3       29.80F

...WESTERN MONTANA...

CITY           SKY/WX    TMP DP  RH WIND       PRES   REMARKS
MISSOULA       SUNNY     77  50  38 SE6       29.86F

...NEIGHBORING CITIES...

CITY           SKY/WX    TMP DP  RH WIND       PRES   REMARKS
SEATTLE        CLOUDY    60  54  80 SW12      30.00R
CALGARY        MOSUNNY   68  54  60 N9        29.81F



USA.gov is the U.S. government's official web portal to all federal, state and local government web resources and services.